KZ-1A R/B (44844 NORAD) Tracking and Keplerian Element Data

This shows tracking and keplerian element data for the satellite.

Feedback or suggestion? Click here.




ElementValue
Catalog44844
NameKZ-1A R/B
Epoch Orbit389
Epoch Day2.91418872
Epoch Year2020
RAAN159.8497
Inclination97.3795
Eccentricity0.0641911
Argument of Perigee256.3607
Mean Anonmoly96.5367
Mean Motion14.70213185
Decay Rate0.00062169
L11 44844U 19087G 20002.91418872 .00062169 20402-5 20042-3 0 9991
L22 44844 97.3795 159.8497 0641911 256.3607 96.5367 14.70213185 3898

Live tracking and technical data element details for KZ-1A R/B (NORAD 44844). KZ-1A R/B can be tracked NOW for your location showing map with azimuth and elevation plus other details from your city location.

Track the satellite on the map from your city or location and see movement details for azimuth, elevation, latitude, longitude, range, height, and movement on the map or in text.







IsCatalogInMostPopularTable: catalog: 44844, numindb: 13
Update: records affected: 1



GetName: 44844 KZ-1A R/B

Hit Count: updated at: Mon, 20 Jan 2020 02:54:35 GMT